Regional Weather Roundup
Issued by NWS Burlington, VT

Home | Current Version | Previous Version | Text Only | Print | Product List | Glossary On
Versions: 1 2 3 4 5 6 7 8 9 10 11 12 13 14 15 16 17 18 19 20 21 22 23 24 25 26 27 28 29 30 31 32 33 34 35 36 37 38 39 40 41 42 43 44 45 46 47 48 49 50
000
ASUS41 KBTV 030130
RWRBTV
VERMONT REGIONAL WEATHER ROUNDUP
NATIONAL WEATHER SERVICE BURLINGTON VT
900 PM EDT SUN AUG 02 2015

NOTE: "FAIR" INDICATES FEW OR NO CLOUDS BELOW 12,000 FEET WITH NO
SIGNIFICANT WEATHER AND/OR OBSTRUCTIONS TO VISIBILITY.

* THESE REPORTS ARE NOT UNDER NWS QUALITY CONTROL AND/OR DO NOT
  REPORT WEATHER SUCH AS PRECIPITATION AND FOG.

VTZ001>019-030200-
_____VERMONT_____


CITY           SKY/WX    TMP DP  RH WIND       PRES   REMARKS
BURLINGTON     CLEAR     77  56  48 S9        29.77F
MONTPELIER     CLEAR     66  56  70 S7        29.88S
MORRISVILLE    CLEAR     68  60  75 CALM      29.83S
ST. JOHNSBURY*   N/A     70  59  68 MISG      29.83R
LYNDONVILLE*   FAIR      68  56  65 SE5       29.87S
MIDDLEBURY*    FAIR      74  56  53 S7        29.80F
SPRINGFIELD    CLEAR     70  57  63 CALM      29.87R
HIGHGATE*      FAIR      74  59  60 S5        29.74F
NEWPORT*       FAIR      68  58  68 S5        29.82F
BENNINGTON     CLEAR     75  56  51 S8        29.87S
GALLUP MILLS*    N/A     59 N/A N/A MISG        N/A
MT. MANSFIELD*   N/A     61 N/A N/A W12G26      N/A

_____LAKE CHAMPLAIN_____


CITY           SKY/WX    TMP DP  RH WIND       PRES   REMARKS
COLCHESTER RF*   N/A     75  64  69 SW10        N/A
DIAMOND ISL*     N/A     75  61  60 S6          N/A

$$

NYZ007-026>031-035-052-083-030200-
_____NORTHERN NEW YORK_____


CITY           SKY/WX    TMP DP  RH WIND       PRES   REMARKS
PLATTSBURGH    CLEAR     71  62  73 SW3       29.75F
SARANAC LAKE   PTCLDY    66  54  65 SW6       29.81F
MASSENA        CLOUDY    73  59  61 S9        29.72F
OGDENSBURG*    PTCLDY    73  57  56 S9        29.68F
POTSDAM*       CLEAR     73  61  64 S9        29.73F
STARK FALLS*     N/A     72 N/A N/A S7          N/A
WATERTOWN      CLOUDY    73  58  59 SW6       29.76F
FT DRUM        CLOUDY    74  57  56 W5        29.78F
ALBANY         PTCLDY    79  56  45 S7        29.84S
GLENS FALLS    CLEAR     73  61  65 S7        29.81F

$$
NHZ002-005-011-030200-
_____NEW HAMPSHIRE_____


CITY           SKY/WX    TMP DP  RH WIND       PRES   REMARKS
LEBANON        CLEAR     65  59  81 CALM      29.85R
KEENE          CLEAR     66  57  72 CALM      29.88S
MT WASHINGTON  MOCLDY    48  46  93 SW37        N/A
PLYMOUTH       FAIR      64  63  99 CALM      29.87R
WHITEFIELD     CLEAR     66  58  75 CALM      29.87R

$$

_____REGIONAL QUEBEC LOCATIONS_____


CITY           SKY/WX    TMP DP  RH WIND       PRES   REMARKS
MONTREAL       MOCLDY    75  61  60 S8        29.71F
QUEBEC CITY    MOCLDY    66  59  77 CALM      29.75R
SHERBROOKE     CLEAR     66  59  77 SE5       29.81R

_____REGIONAL ONTARIO LOCATIONS_____


CITY           SKY/WX    TMP DP  RH WIND       PRES   REMARKS
OTTAWA         LGT RAIN  73  57  56 S9G20     29.65F

______KEY______
VSB  - VISIBILITY IN MILES
WCI  - WIND CHILL INDEX
HX   - HEAT INDEX
$$
NNNN



USA.gov is the U.S. government's official web portal to all federal, state and local government web resources and services.